Location: *
(41.3833°S, 177.8333°W)
Time: 09:07:04
(UTC+00:00)

Cosmos 2322 Rocket - Pass Details

Date: 01 April 2020
Orbit: 834 x 849 km, 71.0° (Epoch: 03 June)

Event Time Altitude Azimuth Distance (km) Brightness Sun altitude
Exits shadow 17:23:35 11° 260° (W) 2,422 3.9 -9.1°
Maximum altitude 17:26:34 15° 227° (SW) 2,127 3.9 -8.6°
Drops below altitude 10° 17:29:49 10° 192° (SSW) 2,487 4.5 -8.0°
Sets 17:33:26 0° 169° (S) 3,432 5.5 -7.3°
